sat.trackr.live / text

‹ back to catalog

STARLINK-32672

NORAD 62195 · 2024-229D

PAYLOAD ACTIVE UNKNOWN

§ Identity

Operator
Country
US
Launch date
2024-12-04
Launch site
AFETR
Launch vehicle
Mass (kg)
RCS (m²)

Purposes: comms

External: N2YO · Heavens-Above · Gunter

§ Orbital elements

Epoch: 2026-09-21T08:00:45.884160Z

Period
94.27 min
Inclination
43.0024°
Eccentricity
0.0001231
Mean motion
15.27585881 rev/d
Perigee alt
482.2 km
Apogee alt
483.9 km
Semi-major
6,861.2 km
B*
3.0720e-4
RAAN
245.7340°
Arg perigee
270.3958°
Mean anomaly
89.6752°
Rev number
10,048

§ Raw data

STARLINK-326721 62195U 24229D   26264.33386440  .00008202  00000+0  30720-3 0  99992 62195  43.0024 245.7340 0001231 270.3958  89.6752 15.27585881100484

JSON: /api/v1/satellites/62195 · /tle

For live sub-satellite position, see the globe view (requires WebGL).

§ Visibility from observer

Set your observer location to see the next 7 days of passes ≥ 10°. The values pass through the URL so the page stays shareable.

No JS? Fill the form by hand. The geolocation button needs JavaScript.